[[{"header":{"parameterUnit":"m.s-1","parameterCategory":1,"la1":30.2991,"la2":30.254,"lo1":-89.0895,"lo2":-89.0444,"dy":0.0017,"dx":0.0017,"nx":28,"ny":28,"refTime":"2023-10-05T09:00:00:Z","depth":0,"parameterNumber":2,"parameterNumberName":"U-component_of_WINDS"},"data":[0,0,0,0,0,0,0,0,0,0,0,0,0,0,0,0,0,0,0,0,0,0,0,0,0,0,0,0,0,0,0,0,0,0,0,0,0,0,0,0,0,0,0,0,0,0,0,0,0,0,0,0,0,0,0,0,0,0,-1.769,-1.7691,0,-1.7771,-1.7772,-1.7773,-1.7753,-1.7752,-1.775,-1.7748,-1.7837,-1.7841,-1.7845,0,0,0,0,0,0,0,0,0,0,0,0,0,-1.7523,-1.7526,-1.769,-1.7691,-1.7692,-1.7771,-1.7772,-1.7773,-1.7753,-1.7752,-1.775,-1.7748,-1.7836,-1.7841,-1.7845,0,0,0,0,0,0,0,0,0,0,0,0,0,-1.7599,-1.7527,-1.769,-1.7691,-1.7692,-1.7771,-1.7772,-1.7774,-1.7754,-1.7751,-1.7749,-1.7747,-1.7835,-1.784,-1.7846,-1.793,0,0,-1.7864,-1.7866,0,0,0,0,0,0,0,0,-1.7595,-1.7605,-1.769,-1.7691,-1.7693,-1.775,-1.7746,-1.7826,-1.7755,-1.7731,-1.7748,-1.7746,-1.7811,-1.7818,-1.7839,-1.7934,-1.7938,-1.7864,-1.7868,-1.787,-1.7872,0,0,0,0,0,0,0,-1.7589,-1.7602,-1.7722,-1.7692,-1.7693,-1.769,-1.7698,-1.7761,-1.7783,-1.7733,-1.7731,-1.7741,-1.7811,-1.7833,-1.7841,-1.7939,-1.7864,-1.7869,-1.7873,-1.7875,-1.8107,-1.811,0,0,0,0,0,0,-1.7582,-1.7597,-1.772,-1.7725,-1.7637,-1.7695,-1.7704,-1.7734,-1.7782,-1.7787,-1.7743,-1.774,-1.7825,-1.7834,-1.7844,-1.7945,-1.787,-1.7876,-1.7879,-1.8105,-1.8108,-1.8111,0,0,0,0,0,0,-1.7579,-1.7593,-1.7717,-1.7661,-1.7676,-1.77,-1.7734,-1.7737,-1.7759,-1.779,-1.7795,-1.7761,-1.7823,-1.7836,-1.7908,-1.7948,-1.7878,-1.7883,-1.8101,-1.8106,-1.8109,-1.8148,0,0,0,0,0,0,-1.7574,-1.7592,-1.7623,-1.7661,-1.7679,-1.7778,-1.7736,-1.774,-1.7768,-1.7765,-1.7809,-1.7814,-1.7822,-1.79,-1.7914,-1.7955,-1.7888,-1.8098,-1.8103,-1.8108,-1.8144,-1.8153,-1.8161,0,0,0,0,0,-1.7568,-1.7632,-1.7625,-1.764,-1.7718,-1.778,-1.7791,-1.7797,-1.7772,-1.7804,-1.7824,-1.7812,-1.7941,-1.7907,-1.7923,-1.7966,-1.8096,-1.8102,-1.8108,-1.814,-1.8151,-1.8161,0,0,0,0,0,0,-1.76,-1.7637,-1.763,-1.7707,-1.774,-1.7777,-1.7817,-1.7809,-1.7852,-1.7847,-1.7856,-1.7866,-1.794,-1.796,-1.7922,-1.805,-1.8015,-1.8025,-1.8034,-1.8045,-1.8054,-1.8048,-1.7893,0,0,0,0,0,-1.7616,-1.7661,-1.7692,-1.7758,-1.7775,-1.7793,-1.7821,-1.7823,-1.7858,-1.7873,-1.7898,-1.7935,-1.7983,-1.8015,-1.8062,-1.8146,-1.8156,-1.8184,-1.8193,-1.82,-1.8208,-1.8255,-1.8268,-1.8131,-1.8131,-1.8131,0,0,-1.765,-1.7675,-1.7704,-1.7765,-1.7791,-1.784,-1.7805,-1.7859,-1.7895,-1.7882,-1.7951,-1.7971,-1.8012,-1.8091,-1.8127,-1.8111,-1.8248,-1.8208,-1.8213,-1.8218,-1.8263,-1.8276,-1.8287,-1.8135,-1.8134,-1.8133,0,0,-1.7736,-1.776,-1.7817,-1.7843,-1.7882,-1.7893,-1.7907,-1.7945,-1.7957,-1.8026,-1.8017,-1.8062,-1.8145,-1.8175,-1.8201,-1.8298,-1.829,-1.8313,-1.836,-1.8405,-1.8416,-1.8426,-1.8461,-1.8473,-1.8321,-1.8322,-1.8322,0,-1.7773,-1.7844,-1.7848,-1.7901,-1.7929,-1.7916,-1.7975,-1.8002,-1.8055,-1.8075,-1.8055,-1.8159,-1.8186,-1.8272,-1.8295,-1.8317,-1.8334,-1.8308,-1.8414,-1.8424,-1.8433,-1.8466,-1.8479,-1.8324,-1.8324,-1.8324,-1.8323,0,-1.7889,-1.7938,-1.798,-1.8029,-1.8062,-1.8118,-1.8131,-1.8164,-1.8163,-1.8177,-1.8249,-1.8281,-1.8333,-1.8354,-1.8355,-1.844,-1.8429,-1.8411,-1.8376,-1.8448,-1.848,-1.8493,-1.8328,-1.8327,-1.8326,-1.8325,0,0,-1.7998,-1.8047,-1.8063,-1.8085,-1.8126,-1.8166,-1.8222,-1.8271,-1.8299,-1.8337,-1.8385,-1.8455,-1.8439,-1.8469,-1.8473,-1.8513,-1.8588,-1.8491,-1.8492,-1.8508,-1.8685,-1.8698,-1.8713,-1.8583,-1.8585,-1.8587,-1.8682,0,-1.8088,-1.8184,-1.8189,-1.8277,-1.8324,-1.8312,-1.8361,-1.8393,-1.8408,-1.8451,-1.8469,-1.8518,-1.8493,-1.8511,-1.855,-1.8571,-1.8624,-1.8564,-1.8629,-1.8631,-1.8619,-1.8729,-1.8743,-1.8831,-1.8694,-1.8696,-1.8698,0,-1.8206,-1.8244,-1.8337,-1.8371,-1.8391,-1.8435,-1.848,-1.8521,-1.8557,-1.8566,-1.8598,-1.8596,-1.8656,-1.8618,-1.8701,-1.866,-1.8687,-1.8701,-1.8705,-1.8712,-1.8669,-1.8739,-1.8859,-1.8872,-1.8717,-1.8716,-1.8714,0,-1.8277,-1.8352,-1.8417,-1.8436,-1.8478,-1.8509,-1.8528,-1.8562,-1.8591,-1.8632,-1.8651,-1.8699,-1.8726,-1.8764,-1.8776,-1.8747,-1.8858,-1.8822,-1.8868,-1.8868,-1.8892,-1.8891,-1.9018,-1.8909,-1.8909,-1.8909,-1.8908,0,-1.8378,-1.8435,-1.8449,-1.8489,-1.8553,-1.8558,-1.8622,-1.864,-1.867,-1.8714,-1.8708,-1.8751,-1.8763,-1.8809,-1.8819,-1.8886,-1.8898,-1.8908,-1.891,-1.8908,-1.8907,-1.8927,-1.8921,-1.8912,-1.8911,-1.8911,-1.891,0,-1.8468,-1.848,-1.8549,-1.8582,-1.8592,-1.8638,-1.8667,-1.8707,-1.872,-1.8777,-1.879,-1.8813,-1.8865,-1.8881,-1.8945,-1.8952,-1.9031,-1.9027,-1.9018,-1.9018,-1.9064,-1.9059,-1.9209,-1.9229,-1.9106,-1.9107,-1.9108,0,-1.8532,-1.8575,-1.8612,-1.864,-1.866,-1.8706,-1.8735,-1.8742,-1.8773,-1.8817,-1.8852,-1.8903,-1.8945,-1.903,-1.9054,-1.9103,-1.9101,-1.915,-1.9108,-1.9106,-1.9102,-1.91,-1.9105,-1.9158,-1.9159,-1.916,-1.9161,0,-1.8644,-1.8647,-1.8688,-1.8731,-1.8765,-1.88,-1.8834,-1.8858,-1.887,-1.8906,-1.8959,-1.8991,-1.9055,-1.9107,-1.9157,-1.9179,-1.9173,-1.9174,-1.9187,-1.9187,-1.918,-1.9184,-1.9039,-1.917,-1.917,-1.9169,-1.9168,-1.9168,-1.8723,-1.8761,-1.8792,-1.8838,-1.8864,-1.8895,-1.8933,-1.8951,-1.8994,-1.9045,-1.9047,-1.9105,-1.9141,-1.9206,-1.9231,-1.9278,-1.9263,-1.9283,-1.9288,-1.9293,-1.9297,-1.9171,-1.9287,-1.9286,-1.9286,-1.9286,-1.9286,0,-1.8835,-1.8854,-1.8896,-1.8942,-1.8979,-1.8967,-1.9003,-1.9036,-1.9085,-1.9118,-1.9158,-1.9219,-1.9269,-1.9296,-1.9346,-1.9378,-1.9377,-1.9391,-1.939,-1.9395,-1.9306,-1.929,-1.9392,-1.9392,-1.9392,-1.9392,-1.9392,-1.9392,-1.8898,-1.8961,-1.8968,-1.9044,-1.9063,-1.9117,-1.9139,-1.9169,-1.9195,-1.9262,-1.9302,-1.9318,-1.9349,-1.9402,-1.9448,-1.9454,-1.9474,-1.949,-1.9495,-1.9412,-1.9401,-1.9391,-1.9375,-1.9494,-1.9494,-1.958,-1.9581,-1.9582]},{"header":{"parameterUnit":"m.s-1","parameterCategory":1,"la1":30.2991,"la2":30.254,"lo1":-89.0895,"lo2":-89.0444,"dy":0.0017,"dx":0.0017,"nx":28,"ny":28,"refTime":"2023-10-05T09:00:00:Z","depth":0,"parameterNumber":3,"parameterNumberName":"V-component_of_WINDS"},"data":[0,0,0,0,0,0,0,0,0,0,0,0,0,0,0,0,0,0,0,0,0,0,0,0,0,0,0,0,0,0,0,0,0,0,0,0,0,0,0,0,0,0,0,0,0,0,0,0,0,0,0,0,0,0,0,0,0,0,1.7994,1.7994,0,1.8045,1.8046,1.8046,1.8033,1.8032,1.8031,1.803,1.8081,1.8083,1.8085,0,0,0,0,0,0,0,0,0,0,0,0,0,1.7883,1.7885,1.7994,1.7995,1.7995,1.8045,1.8046,1.8047,1.8033,1.8032,1.8031,1.803,1.808,1.8083,1.8085,0,0,0,0,0,0,0,0,0,0,0,0,0,1.7933,1.7886,1.7994,1.7995,1.7995,1.8045,1.8046,1.8047,1.8034,1.8032,1.8031,1.8029,1.8079,1.8082,1.8086,1.8137,0,0,1.8096,1.8098,0,0,0,0,0,0,0,0,1.793,1.7937,1.7994,1.7995,1.7995,1.8031,1.8025,1.8077,1.8034,1.8019,1.803,1.8029,1.8065,1.807,1.8083,1.8139,1.8141,1.8096,1.8099,1.81,1.8101,0,0,0,0,0,0,0,1.7927,1.7934,1.8014,1.7995,1.7996,1.7992,1.7998,1.8035,1.805,1.802,1.8019,1.8026,1.8065,1.8079,1.8084,1.8142,1.8096,1.8099,1.8101,1.8103,1.8246,1.8247,0,0,0,0,0,0,1.7923,1.7932,1.8012,1.8016,1.7958,1.7996,1.8001,1.8021,1.805,1.8052,1.8027,1.8025,1.8074,1.808,1.8085,1.8148,1.81,1.8103,1.8105,1.8244,1.8246,1.8248,0,0,0,0,0,0,1.792,1.793,1.801,1.7974,1.7984,1.7999,1.8021,1.8023,1.8037,1.8055,1.8057,1.8039,1.8073,1.8081,1.8125,1.815,1.8105,1.8108,1.8242,1.8244,1.8247,1.8274,0,0,0,0,0,0,1.7917,1.7929,1.7949,1.7974,1.7986,1.8049,1.8023,1.8025,1.8043,1.8041,1.8066,1.8069,1.8073,1.812,1.8128,1.8154,1.811,1.824,1.8243,1.8246,1.8271,1.8277,1.8283,0,0,0,0,0,1.7913,1.7954,1.795,1.796,1.8011,1.8051,1.8057,1.8061,1.8045,1.8065,1.8077,1.8068,1.8146,1.8124,1.8134,1.8161,1.8238,1.8242,1.8246,1.8268,1.8276,1.8282,0,0,0,0,0,0,1.7929,1.7957,1.7953,1.8003,1.8025,1.8048,1.8073,1.8069,1.8095,1.8092,1.8096,1.8101,1.8147,1.8158,1.8134,1.8213,1.819,1.8196,1.8204,1.8211,1.8217,1.8213,1.8113,0,0,0,0,0,1.7939,1.797,1.7992,1.8033,1.8045,1.8058,1.8075,1.8077,1.8099,1.8108,1.8123,1.8144,1.8174,1.8193,1.8221,1.8273,1.8279,1.8296,1.8302,1.8307,1.8312,1.8341,1.835,1.8261,1.8261,1.8261,0,0,1.7958,1.7977,1.7996,1.8037,1.8054,1.8086,1.8065,1.8099,1.8123,1.8113,1.8156,1.8168,1.8192,1.8241,1.8263,1.8252,1.8338,1.8312,1.8315,1.8318,1.8346,1.8355,1.8362,1.8263,1.8263,1.8262,0,0,1.801,1.8027,1.8065,1.8083,1.811,1.8118,1.8128,1.8153,1.8161,1.8204,1.8198,1.8226,1.8277,1.8295,1.8311,1.8372,1.8366,1.8381,1.8412,1.844,1.8447,1.8454,1.8476,1.8484,1.8386,1.8387,1.8387,0,1.803,1.8079,1.8084,1.812,1.8138,1.8133,1.8171,1.8188,1.8222,1.8235,1.8222,1.8287,1.8303,1.8357,1.8372,1.8385,1.8396,1.8378,1.8446,1.8452,1.8458,1.848,1.8488,1.8388,1.8388,1.8388,1.8388,0,1.8103,1.8136,1.8163,1.8198,1.822,1.8256,1.8268,1.8289,1.829,1.8299,1.8345,1.8364,1.8397,1.841,1.841,1.8464,1.8457,1.8445,1.8422,1.8468,1.8489,1.8497,1.8391,1.839,1.839,1.8389,0,0,1.8164,1.8204,1.8213,1.823,1.826,1.8286,1.8323,1.8356,1.8375,1.8399,1.843,1.8475,1.8465,1.8483,1.8486,1.8511,1.856,1.8497,1.8497,1.8508,1.8622,1.863,1.864,1.8556,1.8558,1.8559,1.862,0,1.8219,1.8284,1.8291,1.835,1.8381,1.8378,1.841,1.8432,1.8443,1.8471,1.8483,1.8515,1.8499,1.851,1.8536,1.8549,1.8583,1.8544,1.8585,1.8586,1.8579,1.865,1.8659,1.8715,1.8628,1.8629,1.863,0,1.8291,1.8319,1.8381,1.8409,1.8422,1.8451,1.8483,1.851,1.8536,1.8542,1.8564,1.8564,1.8602,1.8578,1.8632,1.8605,1.8623,1.8632,1.8634,1.8638,1.8611,1.8656,1.8733,1.8742,1.8643,1.8642,1.8641,0,1.833,1.8383,1.8428,1.8442,1.8475,1.8496,1.8511,1.8535,1.8555,1.8583,1.8597,1.8628,1.8646,1.8671,1.8679,1.8661,1.8733,1.8709,1.8739,1.8739,1.8753,1.8752,1.8835,1.8765,1.8765,1.8765,1.8764,0,1.839,1.8428,1.8446,1.8473,1.8516,1.8525,1.8567,1.8581,1.8603,1.8633,1.8632,1.866,1.867,1.87,1.8707,1.875,1.8758,1.8764,1.8766,1.8764,1.8764,1.8775,1.8771,1.8767,1.8766,1.8766,1.8766,0,1.844,1.8454,1.8502,1.8531,1.8539,1.857,1.8594,1.8621,1.8632,1.867,1.868,1.8697,1.8733,1.8745,1.8787,1.8792,1.8843,1.8841,1.8835,1.8835,1.8864,1.8861,1.8957,1.897,1.8891,1.8892,1.8893,0,1.8477,1.8507,1.854,1.856,1.8576,1.8609,1.863,1.864,1.8662,1.8695,1.8718,1.8754,1.8782,1.884,1.8856,1.8889,1.8888,1.8919,1.8893,1.8891,1.8889,1.8887,1.889,1.8924,1.8925,1.8925,1.8926,0,1.8542,1.8548,1.8579,1.8613,1.8639,1.8666,1.8692,1.8709,1.8723,1.8748,1.8785,1.8807,1.8852,1.8887,1.8922,1.8937,1.8934,1.8934,1.8943,1.8942,1.8937,1.8941,1.8848,1.8932,1.8931,1.8931,1.893,1.893,1.8588,1.8614,1.8642,1.8677,1.8698,1.8723,1.875,1.8766,1.8797,1.8835,1.8839,1.8879,1.8906,1.8951,1.8969,1.9,1.8991,1.9004,1.9007,1.901,1.9013,1.8933,1.9007,1.9006,1.9006,1.9006,1.9006,0,1.8653,1.8671,1.8703,1.8741,1.8769,1.8765,1.8794,1.8818,1.8853,1.8879,1.8908,1.8951,1.8987,1.9007,1.9042,1.9064,1.9064,1.9073,1.9071,1.9075,1.9018,1.9007,1.9073,1.9073,1.9073,1.9073,1.9073,1.9073,1.869,1.8735,1.8745,1.8801,1.8819,1.8859,1.8877,1.89,1.8921,1.8969,1.8999,1.9013,1.9037,1.9074,1.9106,1.9112,1.9125,1.9135,1.9139,1.9086,1.9079,1.9072,1.9062,1.9138,1.9138,1.9193,1.9194,1.9194]}]]